[[{"header":{"parameterUnit":"m.s-1","parameterCategory":2,"la1":30.2991,"la2":30.254,"lo1":-89.0895,"lo2":-89.0444,"dy":0.0017,"dx":0.0017,"nx":28,"ny":28,"refTime":"2023-07-18T09:00:00:Z","depth":"0","parameterNumber":2,"parameterNumberName":"U-component_of_CURRENTS"},"data":[0,0,0,0,0,0,0,0,0,0,0,0,0,0,0,0,0,0,0,0,0,0,0,0,0,0,0,0,0,0,0,0,0,0,0,0,0,0,0,0,0,0,0,0,0,0,0,0,0,0,0,0,0,0,0,0,0,0,0.2333,0.2332,0,0.2262,0.2261,0.226,0.2164,0.2162,0.2161,0.216,0.2281,0.2285,0.229,0,0,0,0,0,0,0,0,0,0,0,0,0,0.2232,0.2235,0.2333,0.2332,0.2332,0.2262,0.2261,0.226,0.2164,0.2162,0.2161,0.2159,0.228,0.2285,0.229,0,0,0,0,0,0,0,0,0,0,0,0,0,0.2227,0.2236,0.2333,0.2278,0.2273,0.2263,0.2261,0.2259,0.2164,0.2162,0.216,0.2159,0.2278,0.2284,0.2291,0.237,0,0,0.2311,0.2314,0,0,0,0,0,0,0,0,0.2227,0.223,0.2287,0.2282,0.2276,0.2223,0.227,0.2307,0.2165,0.2201,0.216,0.2158,0.2284,0.2289,0.2272,0.2376,0.2381,0.2312,0.2316,0.2318,0.232,0,0,0,0,0,0,0,0.2228,0.2232,0.2301,0.2286,0.228,0.2205,0.2203,0.2274,0.2255,0.2198,0.2192,0.2191,0.2281,0.2266,0.2275,0.2383,0.2311,0.2317,0.2321,0.2324,0.2563,0.2565,0,0,0,0,0,0,0.2255,0.2234,0.2303,0.2299,0.2251,0.221,0.2207,0.2239,0.225,0.2249,0.2192,0.2187,0.2255,0.2267,0.2279,0.2377,0.2318,0.2325,0.2328,0.2561,0.2563,0.2566,0,0,0,0,0,0,0.2254,0.2264,0.2306,0.2265,0.2265,0.2215,0.225,0.2239,0.2216,0.2244,0.2245,0.2181,0.2254,0.227,0.2354,0.2381,0.2328,0.2334,0.2558,0.2561,0.2565,0.2573,0,0,0,0,0,0,0.2252,0.2265,0.229,0.2269,0.2269,0.2306,0.2252,0.2239,0.2221,0.2212,0.2237,0.2244,0.2254,0.2344,0.236,0.2389,0.2339,0.2555,0.2559,0.2564,0.2569,0.2576,0.2582,0,0,0,0,0,0.2249,0.2315,0.2293,0.23,0.231,0.2308,0.2301,0.2253,0.2222,0.2223,0.2247,0.2243,0.2383,0.2352,0.237,0.2402,0.2553,0.2558,0.2563,0.2567,0.2575,0.2582,0,0,0,0,0,0,0.2301,0.231,0.2286,0.2354,0.2328,0.2293,0.23,0.2262,0.2274,0.2279,0.2286,0.2299,0.2383,0.2404,0.2369,0.2486,0.2464,0.2473,0.246,0.2468,0.2474,0.2453,0.2344,0,0,0,0,0,0.2323,0.2359,0.2344,0.239,0.2388,0.234,0.2331,0.2301,0.2309,0.2306,0.2315,0.2355,0.2423,0.2451,0.2509,0.2583,0.259,0.2614,0.262,0.2625,0.2624,0.2677,0.2687,0.2583,0.2583,0.2583,0,0,0.2358,0.2363,0.2386,0.2399,0.2377,0.2371,0.2329,0.2333,0.2323,0.2332,0.2342,0.239,0.2453,0.2524,0.2563,0.2541,0.2657,0.2632,0.2635,0.2631,0.2683,0.2693,0.2702,0.2587,0.2586,0.2586,0,0,0.2419,0.2449,0.2477,0.2459,0.2438,0.2414,0.2417,0.2384,0.2369,0.24,0.2411,0.2473,0.2543,0.2584,0.2622,0.2708,0.2698,0.2725,0.2729,0.2781,0.2789,0.2796,0.2799,0.2806,0.2715,0.2715,0.2715,0,0.2458,0.2479,0.2481,0.2482,0.2468,0.2434,0.2434,0.2427,0.2417,0.2431,0.2412,0.2524,0.2571,0.2671,0.2686,0.272,0.2727,0.2689,0.2786,0.2793,0.28,0.2802,0.281,0.2716,0.2716,0.2716,0.2716,0,0.2503,0.2511,0.2532,0.2514,0.2509,0.2514,0.2498,0.2498,0.248,0.2469,0.2548,0.2604,0.2662,0.2693,0.2715,0.2799,0.2779,0.2793,0.2755,0.281,0.2809,0.2817,0.2717,0.2717,0.2717,0.2716,0,0,0.2607,0.257,0.257,0.2541,0.2521,0.2521,0.2538,0.2542,0.2554,0.2564,0.259,0.2696,0.2707,0.2751,0.2789,0.2826,0.2878,0.282,0.2822,0.2801,0.2954,0.2863,0.2862,0.2903,0.2905,0.2907,0.2924,0,0.2624,0.261,0.2599,0.2582,0.2566,0.2553,0.2565,0.2575,0.2585,0.2607,0.2673,0.2722,0.2736,0.2764,0.2813,0.2869,0.2903,0.2869,0.2923,0.2924,0.2819,0.2871,0.2721,0.2718,0.2932,0.2933,0.2934,0,0.2648,0.2627,0.2606,0.258,0.2581,0.2577,0.2588,0.2595,0.2643,0.2656,0.2713,0.2746,0.2818,0.2816,0.2917,0.2889,0.2924,0.2954,0.2956,0.2872,0.2849,0.2705,0.2724,0.2589,0.2946,0.2945,0.2944,0,0.2652,0.2634,0.2607,0.2593,0.2572,0.258,0.2579,0.2611,0.2618,0.2676,0.2685,0.2781,0.2805,0.2882,0.2927,0.2927,0.3016,0.3028,0.2979,0.2971,0.2854,0.2833,0.2731,0.3108,0.3108,0.3108,0.3108,0,0.2651,0.2636,0.2603,0.2582,0.2575,0.2574,0.258,0.2602,0.2631,0.2645,0.2701,0.2727,0.2822,0.2874,0.2934,0.2961,0.3024,0.2982,0.298,0.2851,0.283,0.2717,0.2711,0.3109,0.3109,0.3109,0.3109,0,0.2639,0.2618,0.2587,0.2566,0.2562,0.2555,0.2545,0.2553,0.2583,0.2599,0.2608,0.268,0.2744,0.2824,0.2934,0.2939,0.29,0.2998,0.2808,0.2784,0.2592,0.2595,0.2482,0.2431,0.2938,0.2936,0.2935,0,0.2619,0.2594,0.2561,0.2541,0.2526,0.251,0.2498,0.252,0.2521,0.2566,0.2574,0.2635,0.2685,0.278,0.2816,0.288,0.2827,0.2741,0.2727,0.2552,0.2557,0.2497,0.246,0.2571,0.2567,0.2563,0.256,0,0.258,0.257,0.2544,0.2494,0.2472,0.2448,0.2435,0.2431,0.2457,0.2476,0.2518,0.2564,0.2633,0.2629,0.2671,0.2685,0.2569,0.2664,0.2552,0.2313,0.2177,0.2135,0.256,0.2527,0.253,0.2533,0.2535,0.2536,0.2548,0.2524,0.2482,0.2435,0.2407,0.2377,0.2343,0.2355,0.2354,0.2344,0.2429,0.2428,0.2423,0.2474,0.246,0.2254,0.2383,0.2166,0.2199,0.2164,0.2062,0.2384,0.2311,0.2313,0.2314,0.2316,0.2317,0,0.2477,0.246,0.2422,0.2358,0.2295,0.2307,0.2283,0.2235,0.2218,0.2236,0.225,0.2169,0.2105,0.2058,0.1907,0.1799,0.1745,0.1718,0.1598,0.1605,0.193,0.1856,0.1596,0.1596,0.1596,0.1596,0.1597,0.1597,0.2442,0.2387,0.2364,0.2247,0.2202,0.2099,0.2074,0.2036,0.2024,0.192,0.1848,0.1853,0.179,0.1619,0.1402,0.136,0.1283,0.1218,0.1285,0.1487,0.153,0.1572,0.1495,0.1163,0.1163,0.0846,0.0843,0.0841]},{"header":{"parameterUnit":"m.s-1","parameterCategory":2,"la1":30.2991,"la2":30.254,"lo1":-89.0895,"lo2":-89.0444,"dy":0.0017,"dx":0.0017,"nx":28,"ny":28,"refTime":"2023-07-18T09:00:00:Z","depth":"0","parameterNumber":3,"parameterNumberName":"V-component_of_CURRENTS"},"data":[0,0,0,0,0,0,0,0,0,0,0,0,0,0,0,0,0,0,0,0,0,0,0,0,0,0,0,0,0,0,0,0,0,0,0,0,0,0,0,0,0,0,0,0,0,0,0,0,0,0,0,0,0,0,0,0,0,0,-0.0154,-0.0153,0,-0.0047,-0.0046,-0.0045,-0.0026,-0.0026,-0.0027,-0.0028,0.0193,0.0199,0.0206,0,0,0,0,0,0,0,0,0,0,0,0,0,-0.0219,-0.0219,-0.0154,-0.0153,-0.0151,-0.0047,-0.0046,-0.0044,-0.0025,-0.0026,-0.0027,-0.0028,0.0191,0.0198,0.0206,0,0,0,0,0,0,0,0,0,0,0,0,0,-0.016,-0.0219,-0.0154,-0.0129,-0.0126,-0.0047,-0.0046,-0.0044,-0.0025,-0.0026,-0.0028,-0.0029,0.0188,0.0198,0.0208,0.0295,0,0,0.0238,0.0243,0,0,0,0,0,0,0,0,-0.0164,-0.0158,-0.0134,-0.0131,-0.0127,-0.0051,0.0013,0.0075,-0.0025,-0.0064,-0.0028,-0.003,0.0123,0.0139,0.0159,0.0305,0.0315,0.0239,0.0245,0.0249,0.0252,0,0,0,0,0,0,0,-0.0168,-0.0162,-0.0112,-0.0133,-0.0128,-0.0081,-0.0075,0.0025,0.0037,-0.0061,-0.0059,-0.0046,0.0126,0.0149,0.0165,0.0318,0.0239,0.0248,0.0254,0.0258,0.0561,0.0563,0,0,0,0,0,0,-0.0185,-0.0166,-0.0116,-0.0109,-0.0148,-0.0079,-0.0072,-0.0074,0.0034,0.0048,-0.0045,-0.0045,0.0133,0.0153,0.0173,0.0303,0.0249,0.0259,0.0264,0.0559,0.0562,0.0564,0,0,0,0,0,0,-0.0187,-0.0182,-0.012,-0.0134,-0.0122,-0.0077,-0.0079,-0.0071,-0.0052,0.0045,0.0061,-0.0034,0.0133,0.0159,0.0279,0.0311,0.0263,0.0272,0.0557,0.056,0.0563,0.0551,0,0,0,0,0,0,-0.019,-0.0184,-0.0193,-0.0136,-0.0122,-0.0065,-0.0077,-0.0068,-0.0041,-0.0041,0.0061,0.0079,0.0134,0.0264,0.0289,0.0324,0.028,0.0554,0.0558,0.0562,0.0549,0.0554,0.0558,0,0,0,0,0,-0.0193,-0.0199,-0.0194,-0.0188,-0.0136,-0.0063,-0.0051,-0.0023,-0.004,-0.0015,0.0056,0.0076,0.0304,0.0275,0.0303,0.0342,0.0552,0.0557,0.0561,0.0547,0.0553,0.0557,0,0,0,0,0,0,-0.0225,-0.0196,-0.019,-0.0187,-0.0125,-0.006,-0.0043,-0.0023,0.0048,0.0046,0.0121,0.0148,0.0259,0.031,0.0274,0.0439,0.0425,0.0436,0.0405,0.0411,0.0415,0.0379,0.0288,0,0,0,0,0,-0.0238,-0.0242,-0.0183,-0.0176,-0.0153,-0.0099,-0.0071,-0.0043,0.0027,0.0053,0.0127,0.021,0.0304,0.0361,0.0449,0.0556,0.0545,0.0595,0.0599,0.0602,0.0593,0.0605,0.0608,0.0579,0.0579,0.0579,0,0,-0.0247,-0.0232,-0.0232,-0.0183,-0.0144,-0.0088,-0.0086,-0.0036,0.0017,0.0073,0.0166,0.0235,0.0335,0.0447,0.05,0.0493,0.0604,0.0608,0.0609,0.0599,0.061,0.0612,0.0614,0.0582,0.0582,0.0581,0,0,-0.0248,-0.0252,-0.0244,-0.0195,-0.0133,-0.0088,-0.0075,0.0002,0.0037,0.0146,0.019,0.0274,0.0425,0.0494,0.0549,0.0635,0.0623,0.0663,0.0665,0.0677,0.0678,0.0679,0.065,0.0649,0.0667,0.0667,0.0667,0,-0.0267,-0.0239,-0.0222,-0.0183,-0.0139,-0.0089,-0.0037,0.0018,0.0129,0.017,0.0176,0.0365,0.0445,0.0567,0.0593,0.0642,0.0627,0.0634,0.0678,0.0679,0.068,0.065,0.0648,0.0667,0.0667,0.0667,0.0667,0,-0.0239,-0.0213,-0.0197,-0.0141,-0.0088,-0.0033,0.0047,0.0103,0.0147,0.0206,0.0323,0.0422,0.0522,0.0567,0.0614,0.0677,0.0655,0.0674,0.0651,0.0681,0.0649,0.0647,0.0667,0.0667,0.0667,0.0667,0,0,-0.0295,-0.0203,-0.0197,-0.0148,-0.006,-0.0004,0.0074,0.0173,0.0218,0.0313,0.0376,0.0524,0.0539,0.0601,0.0659,0.068,0.0676,0.0676,0.0677,0.0621,0.0663,0.0655,0.0652,0.0693,0.0693,0.0694,0.0628,0,-0.0274,-0.02,-0.0157,-0.0059,-0.0,0.0066,0.0138,0.0227,0.0296,0.0369,0.0448,0.0537,0.0565,0.0606,0.0631,0.0679,0.0674,0.0689,0.0665,0.0663,0.0632,0.0652,0.0687,0.0633,0.0626,0.0626,0.0626,0,-0.0254,-0.0201,-0.0117,-0.0002,0.0025,0.0085,0.0194,0.0267,0.0365,0.041,0.0478,0.0531,0.0602,0.0603,0.0649,0.0653,0.0646,0.0661,0.066,0.0654,0.0654,0.061,0.063,0.0627,0.0623,0.0623,0.0623,0,-0.0273,-0.0167,-0.0099,-0.0059,0.0068,0.0113,0.0177,0.0277,0.0338,0.0421,0.0453,0.0533,0.0571,0.0587,0.0621,0.0628,0.0637,0.0654,0.0629,0.0626,0.0653,0.0653,0.0648,0.0649,0.0649,0.0649,0.0649,0,-0.0257,-0.0194,-0.0104,-0.0059,0.0026,0.0106,0.0188,0.0255,0.0336,0.04,0.0458,0.0508,0.0566,0.059,0.0602,0.0607,0.0615,0.0619,0.0617,0.0651,0.0651,0.0648,0.0635,0.0647,0.0647,0.0648,0.0648,0,-0.0263,-0.021,-0.012,-0.001,0.0025,0.0084,0.0193,0.0249,0.0311,0.0384,0.0405,0.0486,0.0518,0.0554,0.0582,0.0584,0.0602,0.0583,0.0598,0.06,0.0582,0.0567,0.0525,0.0595,0.0542,0.0542,0.0542,0,-0.0248,-0.0209,-0.0105,-0.006,-0.0006,0.008,0.0138,0.0228,0.0282,0.0376,0.0408,0.0457,0.051,0.0533,0.0564,0.0563,0.0575,0.0565,0.0601,0.0578,0.056,0.0544,0.0606,0.0619,0.0619,0.0619,0.0619,0,-0.0212,-0.0194,-0.0128,-0.0054,0.0011,0.009,0.0174,0.0212,0.0306,0.0361,0.0427,0.047,0.0508,0.0563,0.0565,0.0565,0.059,0.0568,0.056,0.0628,0.0595,0.0662,0.063,0.0622,0.0621,0.0621,0.0621,0.0621,-0.019,-0.0155,-0.0096,-0.0019,0.004,0.0107,0.0165,0.0237,0.0318,0.0419,0.0438,0.0535,0.058,0.0616,0.0588,0.0582,0.0596,0.0597,0.0577,0.0559,0.0645,0.0592,0.058,0.058,0.058,0.0579,0.0579,0,-0.0143,-0.0113,-0.0055,0.003,0.0085,0.0119,0.0202,0.0255,0.0338,0.0444,0.051,0.0639,0.0664,0.0668,0.0644,0.0613,0.0641,0.0597,0.06,0.0669,0.0636,0.0663,0.065,0.065,0.065,0.065,0.065,0.065,-0.0111,-0.0058,-0.0033,0.0065,0.0116,0.0186,0.0232,0.0294,0.0381,0.0523,0.065,0.0738,0.0797,0.0634,0.0591,0.0592,0.0629,0.0583,0.0625,0.0599,0.0599,0.0598,0.0623,0.0602,0.0601,0.0719,0.0719,0.0719]}],[{"header":{"parameterUnit":"m.s-1","parameterCategory":2,"la1":30.2991,"la2":30.254,"lo1":-89.0895,"lo2":-89.0444,"dy":0.0017,"dx":0.0017,"nx":28,"ny":28,"refTime":"2023-07-18T09:00:00:Z","depth":"2","parameterNumber":2,"parameterNumberName":"U-component_of_CURRENTS"},"data":[0,0,0,0,0,0,0,0,0,0,0,0,0,0,0,0,0,0,0,0,0,0,0,0,0,0,0,0,0,0,0,0,0,0,0,0,0,0,0,0,0,0,0,0,0,0,0,0,0,0,0,0,0,0,0,0,0,0,0.0018,0.002,0,0.0489,0.0498,0.0507,0.0903,0.0903,0.0903,0.0903,0.0952,0.0953,0.0954,0,0,0,0,0,0,0,0,0,0,0,0,0,0.0274,0.0266,0.0018,0.002,0.0022,0.0488,0.0499,0.0509,0.0903,0.0903,0.0903,0.0904,0.0951,0.0953,0.0954,0,0,0,0,0,0,0,0,0,0,0,0,0,0.0436,0.0264,0.0018,0.0242,0.0263,0.0486,0.0499,0.0512,0.0903,0.0903,0.0903,0.0904,0.0951,0.0953,0.0954,0.0958,0,0,0.0959,0.096,0,0,0,0,0,0,0,0,0.0425,0.0431,0.0207,0.0226,0.025,0.0599,0.0605,0.0625,0.0903,0.0707,0.0903,0.0904,0.0765,0.0782,0.094,0.096,0.0962,0.0959,0.096,0.0961,0.0961,0,0,0,0,0,0,0,0.0413,0.0418,0.025,0.0207,0.0234,0.0595,0.0616,0.0621,0.0754,0.0724,0.0743,0.0724,0.078,0.0938,0.0941,0.0963,0.0959,0.0961,0.0962,0.0962,0.1115,0.1118,0,0,0,0,0,0,0.0219,0.04,0.0234,0.0259,0.0291,0.0583,0.0609,0.0523,0.0765,0.0793,0.0723,0.074,0.0935,0.0939,0.0943,0.1029,0.0961,0.0962,0.0963,0.1112,0.1116,0.1119,0,0,0,0,0,0,0.0222,0.0198,0.0214,0.0313,0.0334,0.0567,0.0475,0.0531,0.0768,0.076,0.079,0.0904,0.0935,0.094,0.0953,0.1028,0.0963,0.0965,0.1109,0.1113,0.1118,0.115,0,0,0,0,0,0,0.0227,0.0195,0.0165,0.0294,0.0318,0.0402,0.0472,0.0538,0.0728,0.076,0.092,0.0925,0.0936,0.095,0.0955,0.1029,0.0966,0.1105,0.1111,0.1116,0.1145,0.1156,0.1164,0,0,0,0,0,0.0234,0.0176,0.0159,0.0144,0.0232,0.0401,0.046,0.0661,0.0735,0.0879,0.091,0.0924,0.0994,0.0952,0.0957,0.1034,0.1102,0.1109,0.1116,0.1141,0.1154,0.1164,0,0,0,0,0,0,0.0316,0.0208,0.0196,0.0115,0.0253,0.0452,0.0573,0.0703,0.088,0.0864,0.0922,0.0927,0.0982,0.0996,0.095,0.1103,0.1068,0.1076,0.1086,0.1098,0.1107,0.1093,0.0967,0,0,0,0,0,0.0275,0.0187,0.0212,0.0175,0.0213,0.0412,0.0529,0.0633,0.0743,0.0842,0.0928,0.0981,0.1016,0.1039,0.1075,0.1125,0.1148,0.1196,0.1205,0.1213,0.121,0.1254,0.1265,0.1142,0.1142,0.1142,0,0,0.0275,0.0221,0.0166,0.0187,0.0305,0.0434,0.0503,0.0641,0.0762,0.0781,0.098,0.1003,0.1034,0.1103,0.1135,0.1121,0.1277,0.1222,0.1227,0.122,0.1262,0.1273,0.1283,0.1147,0.1146,0.1145,0,0,0.0319,0.0198,0.0198,0.0302,0.0397,0.0483,0.0522,0.0713,0.0821,0.095,0.0978,0.1016,0.1155,0.1165,0.1186,0.1262,0.1317,0.1331,0.137,0.1414,0.1423,0.1431,0.1533,0.155,0.1344,0.1344,0.1344,0,0.0378,0.0327,0.0268,0.0374,0.0432,0.0503,0.0615,0.0743,0.0928,0.0945,0.1001,0.1168,0.1182,0.122,0.127,0.128,0.1347,0.1315,0.1421,0.1429,0.1437,0.1539,0.1557,0.1346,0.1346,0.1346,0.1346,0,0.0499,0.048,0.0514,0.0587,0.0656,0.0761,0.0805,0.0901,0.0983,0.1082,0.116,0.1198,0.1299,0.1332,0.1331,0.1407,0.1455,0.1415,0.1378,0.145,0.1556,0.1574,0.135,0.1349,0.1348,0.1348,0,0,0.061,0.0589,0.0628,0.0633,0.0755,0.0798,0.0888,0.097,0.1019,0.1173,0.1265,0.134,0.1371,0.1396,0.1409,0.1444,0.1569,0.148,0.1481,0.1559,0.1744,0.1621,0.1629,0.1565,0.1567,0.1569,0.1815,0,0.0787,0.0859,0.085,0.0965,0.0973,0.0991,0.1077,0.1114,0.1166,0.1267,0.1264,0.1381,0.1397,0.1455,0.149,0.152,0.1612,0.1511,0.1682,0.1688,0.1547,0.1641,0.1442,0.1629,0.1833,0.1836,0.1838,0,0.1001,0.095,0.1033,0.0973,0.0999,0.1116,0.1111,0.1208,0.1268,0.1316,0.1385,0.1432,0.1503,0.1521,0.1648,0.16,0.1708,0.174,0.1749,0.1622,0.1594,0.1582,0.1653,0.1868,0.1865,0.1863,0.1861,0,0.1053,0.1104,0.1104,0.1136,0.1125,0.1161,0.1198,0.1233,0.1278,0.1374,0.1432,0.1507,0.1587,0.1683,0.1759,0.1752,0.1889,0.1877,0.1884,0.1881,0.173,0.1706,0.2022,0.2021,0.2021,0.202,0.2019,0,0.1211,0.1233,0.1128,0.116,0.1183,0.1159,0.1268,0.1298,0.1366,0.1446,0.1493,0.1557,0.164,0.171,0.1794,0.1873,0.194,0.1913,0.1923,0.1744,0.1719,0.1917,0.1901,0.2029,0.2027,0.2026,0.2024,0,0.1284,0.1264,0.1268,0.122,0.1229,0.1252,0.1353,0.1399,0.146,0.1562,0.1615,0.1646,0.1745,0.1793,0.1929,0.1916,0.1993,0.2027,0.1829,0.1807,0.1979,0.1964,0.2098,0.2095,0.2093,0.2091,0.209,0,0.1309,0.1322,0.1312,0.134,0.1362,0.1401,0.1454,0.1494,0.1534,0.1615,0.1644,0.1738,0.1805,0.1885,0.1844,0.1946,0.203,0.1835,0.1744,0.1985,0.1983,0.197,0.1958,0.1624,0.1619,0.1614,0.1611,0,0.1351,0.1414,0.1409,0.1425,0.1493,0.1522,0.1577,0.16,0.1655,0.1716,0.1753,0.18,0.1814,0.1717,0.1749,0.1787,0.1771,0.1751,0.2064,0.1584,0.1542,0.1537,0.1541,0.1573,0.1577,0.1579,0.1582,0.1583,0.1437,0.1456,0.149,0.1543,0.1588,0.1594,0.1612,0.1639,0.1695,0.1674,0.1745,0.1681,0.1616,0.15,0.1494,0.1455,0.1615,0.1559,0.1572,0.1589,0.1438,0.1387,0.1369,0.1372,0.1374,0.1376,0.1377,0,0.1429,0.1514,0.1568,0.1599,0.1625,0.1645,0.1643,0.1589,0.16,0.1597,0.1604,0.1325,0.1252,0.1216,0.1076,0.1097,0.1101,0.109,0.1062,0.11,0.1134,0.0958,0.0764,0.0762,0.0761,0.0759,0,0,0.1443,0.1509,0.1539,0.1606,0.1639,0.1579,0.1559,0.1472,0.1402,0.1279,0.1168,0.1161,0.1144,0.0883,0.0887,0.0807,0.0967,0.0792,0.128,0.1285,0.1317,0.1393,0.1163,0,0,0,0,0]},{"header":{"parameterUnit":"m.s-1","parameterCategory":2,"la1":30.2991,"la2":30.254,"lo1":-89.0895,"lo2":-89.0444,"dy":0.0017,"dx":0.0017,"nx":28,"ny":28,"refTime":"2023-07-18T09:00:00:Z","depth":"2","parameterNumber":3,"parameterNumberName":"V-component_of_CURRENTS"},"data":[0,0,0,0,0,0,0,0,0,0,0,0,0,0,0,0,0,0,0,0,0,0,0,0,0,0,0,0,0,0,0,0,0,0,0,0,0,0,0,0,0,0,0,0,0,0,0,0,0,0,0,0,0,0,0,0,0,0,-0.0636,-0.0635,0,-0.0536,-0.0535,-0.0533,-0.0548,-0.0549,-0.0551,-0.0553,-0.0492,-0.0489,-0.0486,0,0,0,0,0,0,0,0,0,0,0,0,0,-0.0596,-0.0598,-0.0636,-0.0634,-0.0633,-0.0536,-0.0535,-0.0533,-0.0548,-0.055,-0.0552,-0.0553,-0.0493,-0.0489,-0.0486,0,0,0,0,0,0,0,0,0,0,0,0,0,-0.0567,-0.0599,-0.0636,-0.0628,-0.0627,-0.0536,-0.0534,-0.0533,-0.0547,-0.055,-0.0552,-0.0554,-0.0494,-0.049,-0.0485,-0.0407,0,0,-0.0471,-0.0469,0,0,0,0,0,0,0,0,-0.0569,-0.0569,-0.0631,-0.0629,-0.0627,-0.0556,-0.0498,-0.0493,-0.0547,-0.0578,-0.0553,-0.0556,-0.0515,-0.0509,-0.0485,-0.0404,-0.0402,-0.047,-0.0468,-0.0465,-0.0464,0,0,0,0,0,0,0,-0.0572,-0.0572,-0.0597,-0.0629,-0.0627,-0.0546,-0.0547,-0.0496,-0.0535,-0.0575,-0.0576,-0.0563,-0.0515,-0.0489,-0.0483,-0.0401,-0.0471,-0.0466,-0.0463,-0.0462,-0.0309,-0.0308,0,0,0,0,0,0,-0.0594,-0.0575,-0.06,-0.0594,-0.0603,-0.0546,-0.0547,-0.0577,-0.0535,-0.053,-0.0561,-0.0564,-0.0496,-0.0489,-0.0481,-0.0413,-0.0466,-0.0461,-0.0458,-0.031,-0.0309,-0.0307,0,0,0,0,0,0,-0.0594,-0.0598,-0.0604,-0.0578,-0.0574,-0.0546,-0.0578,-0.0573,-0.0552,-0.0524,-0.0521,-0.0545,-0.0498,-0.0488,-0.0459,-0.041,-0.0459,-0.0455,-0.0312,-0.031,-0.0308,-0.0259,0,0,0,0,0,0,-0.0594,-0.06,-0.0647,-0.0582,-0.0576,-0.0556,-0.0575,-0.057,-0.054,-0.0543,-0.0508,-0.0505,-0.0499,-0.0467,-0.0455,-0.0405,-0.0451,-0.0313,-0.0311,-0.0309,-0.0262,-0.0256,-0.025,0,0,0,0,0,-0.0593,-0.0632,-0.0651,-0.0654,-0.0638,-0.0555,-0.0543,-0.0529,-0.0537,-0.052,-0.0515,-0.0506,-0.0443,-0.0462,-0.0448,-0.0396,-0.0314,-0.0312,-0.0309,-0.0265,-0.0257,-0.025,0,0,0,0,0,0,-0.0638,-0.0635,-0.0655,-0.0696,-0.0637,-0.0557,-0.0553,-0.052,-0.0496,-0.0522,-0.049,-0.0485,-0.0436,-0.0427,-0.0448,-0.0348,-0.0375,-0.037,-0.0347,-0.0339,-0.0333,-0.0336,-0.0447,0,0,0,0,0,-0.0672,-0.0702,-0.066,-0.0684,-0.0671,-0.0608,-0.058,-0.0561,-0.0519,-0.0511,-0.0469,-0.0445,-0.0407,-0.0388,-0.0355,-0.0296,-0.0289,-0.0255,-0.0249,-0.0244,-0.0238,-0.0201,-0.0191,-0.0298,-0.0298,-0.0298,0,0,-0.0682,-0.0693,-0.0705,-0.0694,-0.0661,-0.0603,-0.0598,-0.0558,-0.0504,-0.0507,-0.0439,-0.0417,-0.0388,-0.0333,-0.0308,-0.0323,-0.0208,-0.024,-0.0236,-0.0233,-0.0197,-0.0186,-0.0177,-0.0297,-0.0297,-0.0297,0,0,-0.0679,-0.0741,-0.0748,-0.07,-0.0662,-0.0618,-0.0601,-0.052,-0.0501,-0.0425,-0.0422,-0.0383,-0.0299,-0.0276,-0.0253,-0.019,-0.0177,-0.0171,-0.0136,-0.0099,-0.009,-0.0082,-0.0054,-0.0044,-0.0168,-0.0168,-0.0168,0,-0.0719,-0.0705,-0.0723,-0.069,-0.0647,-0.0617,-0.0561,-0.0519,-0.0429,-0.0408,-0.0408,-0.029,-0.0267,-0.02,-0.0184,-0.0172,-0.0158,-0.0165,-0.0091,-0.0083,-0.0075,-0.0049,-0.0038,-0.0165,-0.0166,-0.0166,-0.0166,0,-0.0656,-0.0666,-0.0652,-0.0618,-0.0578,-0.0521,-0.0468,-0.0431,-0.0395,-0.034,-0.0268,-0.0231,-0.0167,-0.0139,-0.0138,-0.0064,-0.0073,-0.0087,-0.011,-0.0062,-0.0037,-0.0027,-0.0161,-0.0162,-0.0163,-0.0164,0,0,-0.0716,-0.0635,-0.0636,-0.0604,-0.0536,-0.049,-0.0434,-0.0361,-0.0325,-0.0247,-0.0177,-0.0102,-0.0091,-0.0066,-0.005,-0.0012,0.0057,-0.0025,-0.0024,0.0002,0.0137,0.0137,0.0148,0.0056,0.0058,0.006,0.0135,0,-0.0669,-0.0593,-0.0564,-0.0475,-0.0426,-0.0396,-0.0335,-0.0284,-0.0239,-0.0169,-0.0135,-0.0063,-0.006,-0.0031,0.001,0.0041,0.0086,0.0038,0.0087,0.0088,0.0082,0.016,0.0132,0.0197,0.0144,0.0146,0.0147,0,-0.0615,-0.0573,-0.0484,-0.0412,-0.0395,-0.034,-0.0277,-0.0214,-0.0148,-0.0118,-0.0059,-0.0027,0.0044,0.0035,0.0125,0.0093,0.0125,0.0149,0.0151,0.0141,0.0108,0.014,0.0217,0.0164,0.0163,0.0161,0.016,0,-0.0609,-0.0527,-0.0459,-0.0418,-0.0326,-0.0308,-0.0263,-0.0203,-0.0157,-0.0086,-0.0043,0.0026,0.0078,0.0125,0.018,0.0154,0.0275,0.0238,0.0273,0.0272,0.0253,0.0247,0.0315,0.0314,0.0314,0.0314,0.0314,0,-0.056,-0.0514,-0.0456,-0.0403,-0.0349,-0.0299,-0.0236,-0.0199,-0.0126,-0.0053,-0.0016,0.0056,0.0106,0.0177,0.0205,0.0282,0.0297,0.0302,0.0304,0.0269,0.0265,0.0231,0.022,0.0317,0.0316,0.0316,0.0315,0,-0.0564,-0.0504,-0.0436,-0.0358,-0.0338,-0.0307,-0.0223,-0.0167,-0.0112,-0.0018,0.001,0.0095,0.0188,0.024,0.0325,0.0325,0.0384,0.0407,0.0361,0.0357,0.0345,0.0336,0.0443,0.0444,0.0445,0.0445,0.0446,0,-0.055,-0.0508,-0.0431,-0.0385,-0.0351,-0.0292,-0.0237,-0.0171,-0.0105,0.0018,0.0071,0.0176,0.0285,0.0397,0.0412,0.0469,0.0453,0.0449,0.0396,0.0373,0.0364,0.0353,0.0344,0.0391,0.0391,0.0391,0.0391,0,-0.0532,-0.0517,-0.0461,-0.0365,-0.0307,-0.0239,-0.0161,-0.0112,-0.0011,0.0073,0.0201,0.0294,0.0395,0.045,0.0501,0.0514,0.0428,0.045,0.0467,0.0356,0.0329,0.0317,0.0309,0.0391,0.0391,0.0391,0.0391,0.0391,-0.054,-0.0508,-0.0419,-0.0328,-0.0255,-0.0161,-0.0089,0.0002,0.0118,0.0287,0.0329,0.049,0.0484,0.0594,0.0541,0.0458,0.0488,0.0438,0.0436,0.0435,0.0409,0.0384,0.0452,0.0452,0.0452,0.0452,0.0453,0,-0.0508,-0.0442,-0.0365,-0.0236,-0.0131,-0.0112,-0.0001,0.0093,0.0248,0.0382,0.0532,0.0586,0.0643,0.06,0.0474,0.0416,0.0387,0.0376,0.0335,0.0337,0.0338,0.0304,0.0321,0.032,0.0319,0.0319,0,0,-0.0475,-0.0375,-0.0317,-0.0122,-0.0037,0.009,0.0158,0.0268,0.0377,0.0546,0.0648,0.0832,0.0733,0.0625,0.0512,0.0394,0.0378,0.0377,0.0495,0.046,0.0461,0.0392,0.0346,0,0,0,0,0]}],[{"header":{"parameterUnit":"m.s-1","parameterCategory":2,"la1":30.2991,"la2":30.254,"lo1":-89.0895,"lo2":-89.0444,"dy":0.0017,"dx":0.0017,"nx":28,"ny":28,"refTime":"2023-07-18T09:00:00:Z","depth":"4","parameterNumber":2,"parameterNumberName":"U-component_of_CURRENTS"},"data":[0,0,0,0,0,0,0,0,0,0,0,0,0,0,0,0,0,0,0,0,0,0,0,0,0,0,0,0,0,0,0,0,0,0,0,0,0,0,0,0,0,0,0,0,0,0,0,0,0,0,0,0,0,0,0,0,0,0,-0.0569,-0.057,0,-0.06,-0.06,-0.06,-0.0631,-0.0632,-0.0632,-0.0633,-0.0731,-0.0733,-0.0736,0,0,0,0,0,0,0,0,0,0,0,0,0,-0.0606,-0.0605,-0.0569,-0.057,-0.057,-0.0599,-0.06,-0.06,-0.0631,-0.0632,-0.0633,-0.0633,-0.0731,-0.0733,-0.0736,0,0,0,0,0,0,0,0,0,0,0,0,0,-0.0607,-0.0605,-0.0569,-0.059,-0.0593,-0.0599,-0.06,-0.06,-0.0631,-0.0632,-0.0633,-0.0634,-0.073,-0.0733,-0.0736,-0.0739,0,0,-0.0746,-0.0747,0,0,0,0,0,0,0,0,-0.0607,-0.0606,-0.0587,-0.0589,-0.0591,-0.0614,-0.0649,-0.065,-0.0631,-0.0615,-0.0633,-0.0634,-0.0699,-0.0704,-0.0705,-0.0744,-0.0748,-0.0746,-0.0748,-0.0749,-0.075,0,0,0,0,0,0,0,-0.0607,-0.0605,-0.058,-0.0587,-0.059,-0.0622,-0.0622,-0.0649,-0.0652,-0.0616,-0.0619,-0.0624,-0.07,-0.0702,-0.0708,-0.0749,-0.0746,-0.0749,-0.0751,-0.0752,-0.0915,-0.0917,0,0,0,0,0,0,-0.0601,-0.0604,-0.0579,-0.0581,-0.0603,-0.062,-0.0621,-0.0605,-0.065,-0.0658,-0.0624,-0.0626,-0.0696,-0.0704,-0.0712,-0.0767,-0.0749,-0.0752,-0.0754,-0.0913,-0.0916,-0.0918,0,0,0,0,0,0,-0.0601,-0.0598,-0.0578,-0.0596,-0.0596,-0.0618,-0.0601,-0.0605,-0.0625,-0.0655,-0.0664,-0.0641,-0.0697,-0.0707,-0.0752,-0.0769,-0.0754,-0.0757,-0.091,-0.0914,-0.0917,-0.0846,0,0,0,0,0,0,-0.0602,-0.0597,-0.0588,-0.0595,-0.0595,-0.0589,-0.06,-0.0605,-0.0626,-0.063,-0.0673,-0.0682,-0.0699,-0.0747,-0.0755,-0.0773,-0.0759,-0.0907,-0.0911,-0.0916,-0.0845,-0.0847,-0.0848,0,0,0,0,0,-0.0603,-0.0587,-0.0586,-0.0584,-0.0579,-0.0589,-0.0592,-0.0611,-0.0626,-0.0632,-0.0667,-0.0681,-0.0784,-0.075,-0.0759,-0.0779,-0.0904,-0.091,-0.0915,-0.0844,-0.0846,-0.0848,0,0,0,0,0,0,-0.0603,-0.0589,-0.0588,-0.057,-0.0582,-0.0595,-0.0601,-0.0619,-0.0648,-0.0668,-0.0691,-0.0702,-0.0767,-0.0787,-0.075,-0.085,-0.0856,-0.0863,-0.0799,-0.0801,-0.0803,-0.0747,-0.0762,0,0,0,0,0,-0.0596,-0.0579,-0.058,-0.057,-0.057,-0.0589,-0.0598,-0.0623,-0.0648,-0.0663,-0.0707,-0.0757,-0.0794,-0.0805,-0.0866,-0.0886,-0.0907,-0.092,-0.0921,-0.0921,-0.0889,-0.0962,-0.0965,-0.0936,-0.0936,-0.0936,0,0,-0.0595,-0.0586,-0.0577,-0.0569,-0.0577,-0.0601,-0.0596,-0.0625,-0.0656,-0.0671,-0.074,-0.0779,-0.0813,-0.0857,-0.0886,-0.0867,-0.0941,-0.0928,-0.0927,-0.0894,-0.0968,-0.097,-0.0972,-0.094,-0.0939,-0.0939,0,0,-0.0595,-0.0574,-0.0565,-0.058,-0.0602,-0.062,-0.0631,-0.0672,-0.0691,-0.0728,-0.0778,-0.0817,-0.0865,-0.0898,-0.0908,-0.0955,-0.0969,-0.0991,-0.0913,-0.0985,-0.0986,-0.0988,-0.0999,-0.1001,-0.0961,-0.0961,-0.0961,0,-0.06,-0.0587,-0.057,-0.0584,-0.06,-0.0631,-0.0653,-0.0678,-0.0743,-0.0755,-0.075,-0.0849,-0.0877,-0.0917,-0.0905,-0.0953,-0.0968,-0.0888,-0.098,-0.0982,-0.0985,-0.0996,-0.1,-0.0958,-0.0959,-0.0959,-0.0959,0,-0.0598,-0.0607,-0.0608,-0.063,-0.0643,-0.0675,-0.0703,-0.0742,-0.0759,-0.0784,-0.0837,-0.0866,-0.0894,-0.093,-0.0891,-0.0938,-0.0935,-0.0992,-0.0955,-0.0982,-0.0994,-0.0999,-0.0954,-0.0955,-0.0956,-0.0957,0,0,-0.0566,-0.0599,-0.0604,-0.0627,-0.0675,-0.0688,-0.0729,-0.0758,-0.0794,-0.0826,-0.0855,-0.0865,-0.0861,-0.0874,-0.0891,-0.0911,-0.0913,-0.0907,-0.0912,-0.0878,-0.1014,-0.0811,-0.0797,-0.0974,-0.0975,-0.0976,-0.1006,0,-0.0576,-0.0603,-0.0619,-0.0674,-0.0689,-0.0726,-0.0759,-0.0797,-0.082,-0.0874,-0.0873,-0.0908,-0.0849,-0.084,-0.0852,-0.0933,-0.0926,-0.0895,-0.1027,-0.1029,-0.0814,-0.0797,-0.098,-0.101,-0.1011,-0.1012,-0.1013,0,-0.0565,-0.0587,-0.0621,-0.0683,-0.0692,-0.0724,-0.0768,-0.0801,-0.086,-0.0866,-0.0869,-0.0897,-0.0892,-0.0867,-0.0923,-0.0898,-0.0906,-0.0957,-0.0963,-0.079,-0.0834,-0.0991,-0.1023,-0.1022,-0.1021,-0.102,-0.102,0,-0.0531,-0.059,-0.0613,-0.0638,-0.071,-0.0712,-0.0729,-0.0782,-0.0805,-0.0841,-0.0857,-0.0897,-0.0888,-0.0937,-0.0914,-0.0931,-0.0999,-0.1077,-0.0908,-0.0894,-0.11,-0.1099,-0.1112,-0.1112,-0.1112,-0.1112,-0.1112,0,-0.0517,-0.0553,-0.0592,-0.0616,-0.0639,-0.0669,-0.0699,-0.0721,-0.0772,-0.0787,-0.0815,-0.0809,-0.0896,-0.0923,-0.0941,-0.0877,-0.1007,-0.0855,-0.088,-0.1071,-0.1067,-0.1102,-0.1101,-0.1113,-0.1113,-0.1112,-0.1112,0,-0.0479,-0.0517,-0.0566,-0.0621,-0.0625,-0.062,-0.0648,-0.0676,-0.07,-0.072,-0.0708,-0.0748,-0.0719,-0.0798,-0.0885,-0.0863,-0.0887,-0.0835,-0.0963,-0.1003,-0.0739,-0.0734,-0.0689,-0.0682,-0.0676,-0.0671,-0.0666,0,-0.0463,-0.0476,-0.055,-0.0556,-0.0572,-0.0569,-0.0575,-0.061,-0.0617,-0.0641,-0.0634,-0.0619,-0.0619,-0.0591,-0.0664,-0.0697,-0.0684,-0.0707,-0.075,-0.0661,-0.0693,-0.0698,-0.0701,-0.0657,-0.0655,-0.0654,-0.0652,0,-0.0438,-0.0474,-0.0511,-0.052,-0.0521,-0.0535,-0.0516,-0.052,-0.0538,-0.0583,-0.0505,-0.0481,-0.0445,-0.0465,-0.0455,-0.0493,-0.0719,-0.0645,-0.066,-0.0701,-0.0622,-0.0661,-0.0671,-0.0631,-0.0634,-0.0636,-0.0637,0,-0.0421,-0.0429,-0.0474,-0.047,-0.0486,-0.0475,-0.0486,-0.0447,-0.0452,-0.046,-0.0407,-0.0393,-0.0403,-0.0349,-0.0352,-0.0342,-0.0365,-0.041,-0.0438,-0.0462,-0.0366,-0.0232,-0.0105,0,0,0,0,0,-0.0379,-0.038,-0.0405,-0.0419,-0.0445,-0.0438,-0.0447,-0.0459,-0.0465,-0.0378,-0.0389,-0.0322,-0.0259,-0.0252,-0.02,-0.0277,-0.0399,-0.0217,-0.0474,-0.0515,-0.0539,-0.0444,0,0,0,0,0,0,-0.0345,-0.0374,-0.0394,-0.0382,-0.0368,-0.0382,-0.0379,-0.039,-0.0334,-0.0331,-0.0292,-0.0276,-0.0228,-0.0267,-0.0181,-0.0181,-0.0331,-0.0201,-0.0199,-0.0501,-0.0523,-0.0543,-0.0453,0,0,0,0,0]},{"header":{"parameterUnit":"m.s-1","parameterCategory":2,"la1":30.2991,"la2":30.254,"lo1":-89.0895,"lo2":-89.0444,"dy":0.0017,"dx":0.0017,"nx":28,"ny":28,"refTime":"2023-07-18T09:00:00:Z","depth":"4","parameterNumber":3,"parameterNumberName":"V-component_of_CURRENTS"},"data":[0,0,0,0,0,0,0,0,0,0,0,0,0,0,0,0,0,0,0,0,0,0,0,0,0,0,0,0,0,0,0,0,0,0,0,0,0,0,0,0,0,0,0,0,0,0,0,0,0,0,0,0,0,0,0,0,0,0,0.0277,0.0277,0,0.0233,0.0233,0.0232,0.0257,0.0258,0.0259,0.026,0.0256,0.0254,0.0253,0,0,0,0,0,0,0,0,0,0,0,0,0,0.0324,0.0324,0.0277,0.0277,0.0276,0.0233,0.0233,0.0232,0.0257,0.0258,0.0259,0.0261,0.0256,0.0255,0.0253,0,0,0,0,0,0,0,0,0,0,0,0,0,0.0295,0.0324,0.0278,0.0283,0.0282,0.0233,0.0233,0.0232,0.0256,0.0258,0.026,0.0261,0.0256,0.0255,0.0253,0.0208,0,0,0.0247,0.0247,0,0,0,0,0,0,0,0,0.0297,0.0294,0.0282,0.0282,0.0282,0.0251,0.0247,0.0226,0.0256,0.0267,0.026,0.0262,0.0256,0.0254,0.0243,0.0208,0.0207,0.0247,0.0246,0.0245,0.0245,0,0,0,0,0,0,0,0.0299,0.0296,0.0261,0.0282,0.0281,0.0267,0.0265,0.0243,0.0254,0.0266,0.0268,0.0261,0.0257,0.0245,0.0243,0.0207,0.0247,0.0246,0.0245,0.0244,0.0213,0.0214,0,0,0,0,0,0,0.0304,0.0298,0.0262,0.0259,0.0293,0.0265,0.0263,0.026,0.0253,0.0253,0.0259,0.0262,0.0247,0.0245,0.0243,0.0243,0.0246,0.0244,0.0243,0.0213,0.0213,0.0214,0,0,0,0,0,0,0.0305,0.0301,0.0264,0.0277,0.0271,0.0262,0.0259,0.0258,0.0263,0.0247,0.0249,0.0267,0.0248,0.0246,0.0235,0.0242,0.0243,0.0241,0.0213,0.0213,0.0214,0.0209,0,0,0,0,0,0,0.0307,0.0302,0.03,0.0277,0.027,0.0231,0.0257,0.0256,0.0255,0.0258,0.0253,0.0254,0.0249,0.0237,0.0233,0.0239,0.024,0.0213,0.0213,0.0213,0.0209,0.0209,0.021,0,0,0,0,0,0.0309,0.0294,0.03,0.0295,0.0268,0.0229,0.0224,0.0225,0.0254,0.024,0.025,0.0255,0.0239,0.0235,0.023,0.0236,0.0212,0.0213,0.0213,0.0209,0.0209,0.021,0,0,0,0,0,0,0.0316,0.0295,0.0301,0.0283,0.0258,0.0233,0.0222,0.0229,0.0225,0.0248,0.0243,0.0242,0.0244,0.0235,0.0232,0.0232,0.0232,0.0231,0.023,0.023,0.0231,0.0233,0.0239,0,0,0,0,0,0.0315,0.0302,0.0277,0.0263,0.0253,0.0243,0.0231,0.0238,0.023,0.0232,0.0253,0.026,0.0236,0.0231,0.0228,0.0209,0.0237,0.0216,0.0216,0.0216,0.0216,0.0245,0.0248,0.0216,0.0216,0.0216,0,0,0.0312,0.0302,0.0293,0.0264,0.0251,0.0235,0.024,0.023,0.023,0.023,0.0265,0.0267,0.0234,0.0227,0.0227,0.0221,0.0249,0.0217,0.0217,0.0217,0.0246,0.0249,0.0252,0.0216,0.0216,0.0216,0,0,0.0297,0.0294,0.0276,0.0258,0.0242,0.0237,0.0238,0.0245,0.0256,0.0266,0.0273,0.0274,0.0271,0.0245,0.0221,0.0216,0.0256,0.023,0.0222,0.025,0.0253,0.0255,0.0334,0.0344,0.0222,0.0222,0.0222,0,0.0296,0.0282,0.0262,0.0245,0.0237,0.0242,0.0232,0.0226,0.0244,0.0245,0.0286,0.0282,0.0272,0.021,0.0221,0.0215,0.0262,0.0219,0.025,0.0253,0.0256,0.0336,0.0347,0.0222,0.0222,0.0222,0.0222,0,0.0266,0.0263,0.0252,0.024,0.0221,0.0217,0.0208,0.0223,0.0263,0.0266,0.0268,0.0265,0.0262,0.0256,0.0234,0.0233,0.0275,0.0254,0.0249,0.0259,0.0343,0.0354,0.0222,0.0222,0.0222,0.0222,0,0,0.0253,0.0236,0.0236,0.0232,0.023,0.0208,0.0208,0.0189,0.0184,0.0231,0.0226,0.0208,0.0243,0.022,0.0208,0.022,0.0297,0.0254,0.0255,0.0333,0.0413,0.0286,0.0287,0.029,0.0291,0.0292,0.0478,0,0.0245,0.0222,0.0217,0.0205,0.0196,0.0196,0.0187,0.0175,0.0186,0.0193,0.0182,0.0201,0.0212,0.0237,0.0242,0.0265,0.0321,0.0251,0.0391,0.0396,0.0279,0.0291,0.0295,0.0487,0.0489,0.0491,0.0493,0,0.0222,0.0214,0.0224,0.0193,0.0187,0.0218,0.02,0.0185,0.0166,0.0178,0.0186,0.0193,0.0206,0.0239,0.0311,0.0274,0.0366,0.0398,0.0405,0.0288,0.0285,0.0465,0.0513,0.0512,0.051,0.0509,0.0507,0,0.0224,0.0203,0.0226,0.0224,0.0212,0.0248,0.0252,0.0229,0.021,0.022,0.0227,0.0221,0.0265,0.0329,0.0382,0.0384,0.0466,0.0478,0.0463,0.0459,0.0524,0.0519,0.0583,0.0583,0.0582,0.0582,0.0581,0,0.021,0.021,0.0264,0.028,0.0319,0.0296,0.0325,0.0316,0.0297,0.0264,0.0271,0.0225,0.0297,0.0318,0.0391,0.043,0.0493,0.0468,0.048,0.0525,0.0517,0.0536,0.0528,0.0589,0.0587,0.0586,0.0585,0,0.0204,0.0231,0.0269,0.0316,0.0347,0.0396,0.0416,0.0394,0.0395,0.0361,0.0384,0.0294,0.0297,0.0345,0.0431,0.0445,0.0496,0.052,0.0587,0.0599,0.0498,0.0488,0.0551,0.0548,0.0545,0.0543,0.0541,0,0.0196,0.0224,0.0335,0.0411,0.0478,0.0534,0.0552,0.0505,0.0435,0.0355,0.0299,0.0303,0.0254,0.0299,0.0306,0.0439,0.0448,0.0529,0.0494,0.0481,0.0488,0.0482,0.0476,0.0536,0.0535,0.0535,0.0534,0,0.0187,0.0269,0.0316,0.0503,0.0597,0.0594,0.0594,0.0529,0.0421,0.0412,0.0289,0.0283,0.0244,0.0233,0.0335,0.0405,0.0479,0.0501,0.0509,0.0476,0.0463,0.0471,0.0469,0.0524,0.0525,0.0526,0.0527,0,0.0214,0.0272,0.041,0.0553,0.0679,0.0673,0.0621,0.0526,0.0455,0.0323,0.0257,0.0241,0.0215,0.0209,0.0251,0.0328,0.0361,0.0429,0.0442,0.0453,0.0312,0.0275,0.029,0,0,0,0,0,0.0237,0.0299,0.0434,0.0576,0.0705,0.0753,0.0651,0.0542,0.0388,0.0338,0.0312,0.0274,0.0289,0.0202,0.0274,0.0182,0.0356,0.0259,0.0441,0.0469,0.048,0.0311,0,0,0,0,0,0,0.025,0.0371,0.0425,0.0602,0.0695,0.0757,0.0689,0.0554,0.045,0.0345,0.0325,0.0325,0.03,0.0323,0.0307,0.0301,0.0424,0.025,0.0251,0.0462,0.0473,0.0482,0.0312,0,0,0,0,0]}]]